Location: Geroldsau
(48.7259°N, 8.2466°E)
Time: 17:59:10
(UTC+00:00)

Alouette 2 Rocket - Visible Passes

Search period start: 21 October 2021 00:00
Search period end: 31 October 2021 00:00
Orbit: 501 x 2650 km, 79.8° (Epoch: 21 October)

Date Brightness Start Highest point End Pass type
(mag) Time Alt. Az. Time Alt. Az. Time Alt. Az.
21 Oct 6.6 01:54:17 56° WNW 01:54:43 56° WNW 02:08:44 10° NNE visible
21 Oct 7.5 03:52:02 19° WNW 03:57:59 24° NW 04:08:16 10° NNE visible
21 Oct 7.9 21:31:54 17° ENE 21:31:54 17° ENE 21:39:35 10° NNE visible
21 Oct 6.9 23:29:40 52° ENE 23:29:40 52° ENE 23:41:22 10° NNE visible
22 Oct 6.5 01:27:25 64° WNW 01:27:25 64° WNW 01:41:02 10° NNE visible
22 Oct 7.3 03:25:11 24° WNW 03:29:25 27° NW 03:40:26 10° N visible
22 Oct 7.8 05:29:11 10° NW 05:35:29 14° N 05:41:11 10° NNE visible
22 Oct 8.0 21:05:02 13° ENE 21:05:02 13° ENE 21:10:30 10° NE visible
22 Oct 7.1 23:02:48 44° ENE 23:02:48 44° ENE 23:13:31 10° NNE visible
23 Oct 6.5 01:00:33 71° NW 01:00:33 71° NW 01:13:20 10° NNE visible
23 Oct 7.2 02:58:19 30° WNW 03:01:00 31° NW 03:12:41 10° N visible
23 Oct 7.8 04:59:31 10° NW 05:06:29 14° NNW 05:12:47 10° NNE visible
23 Oct 7.3 22:35:54 36° ENE 22:35:54 36° ENE 22:45:37 10° NNE visible
24 Oct 6.5 00:33:40 72° N 00:33:40 72° N 00:45:37 10° NNE visible
24 Oct 7.0 02:31:25 36° WNW 02:32:43 36° NW 02:44:56 10° N visible
24 Oct 7.7 04:29:42 10° WNW 04:37:33 16° NNW 04:44:37 10° N visible
24 Oct 7.4 22:09:00 30° ENE 22:09:00 30° ENE 22:17:37 10° NNE visible
25 Oct 6.6 00:06:46 67° NNE 00:06:46 67° NNE 00:17:53 10° NNE visible
25 Oct 6.9 02:04:31 42° WNW 02:04:33 42° WNW 02:17:12 10° N visible
25 Oct 7.7 04:02:17 13° WNW 04:08:43 18° NNW 04:16:37 10° N visible
25 Oct 7.6 21:42:05 24° ENE 21:42:05 24° ENE 21:49:30 10° NNE visible
25 Oct 6.7 23:39:50 59° NE 23:39:50 59° NE 23:50:07 10° NNE visible
26 Oct 6.8 01:37:36 48° NW 01:37:36 48° NW 01:49:29 10° N visible
26 Oct 7.6 03:35:21 17° WNW 03:39:59 20° NW 03:48:44 10° N visible
26 Oct 7.7 21:15:08 20° ENE 21:15:08 20° ENE 21:21:12 10° NNE visible
26 Oct 6.9 23:12:54 50° NE 23:12:54 50° NE 23:22:19 10° NNE visible
27 Oct 6.7 01:10:39 53° NW 01:10:39 53° NW 01:21:46 10° NNE visible
27 Oct 7.4 03:08:25 22° NW 03:11:22 23° NW 03:20:56 10° N visible
27 Oct 7.8 05:13:25 10° NNW 05:17:28 12° N 05:21:12 10° NNE visible
27 Oct 7.9 20:48:12 15° NE 20:48:12 15° NE 20:52:32 10° NE visible
27 Oct 7.1 22:45:57 43° NE 22:45:57 43° NE 22:54:29 10° NNE visible
28 Oct 6.7 00:43:42 57° NNW 00:43:42 57° NNW 00:54:04 10° NNE visible
28 Oct 7.3 02:41:27 26° NW 02:42:53 27° NW 02:53:10 10° N visible
28 Oct 7.8 04:43:49 10° NW 04:48:28 12° NNW 04:52:42 10° N visible
28 Oct 8.0 20:21:13 11° NE 20:21:13 11° NE 20:23:03 10° NE visible
28 Oct 7.2 22:18:58 36° NE 22:18:58 36° NE 22:26:36 10° NNE visible
29 Oct 6.7 00:16:43 58° N 00:16:43 58° N 00:26:20 10° NNE visible
29 Oct 7.2 02:14:29 31° NW 02:14:32 31° NW 02:25:25 10° N visible
29 Oct 7.8 04:13:54 10° NW 04:19:31 13° NNW 04:24:33 10° N visible
29 Oct 7.4 21:51:59 30° NE 21:51:59 30° NE 21:58:38 10° NNE visible
29 Oct 6.7 23:49:44 55° N 23:49:44 55° N 23:58:36 10° NNE visible
30 Oct 7.1 01:47:29 35° NW 01:47:29 35° NW 01:57:42 10° N visible
30 Oct 7.7 03:45:14 11° NW 03:50:38 15° NNW 03:56:37 10° N visible
30 Oct 7.5 21:24:58 25° NE 21:24:58 25° NE 21:30:35 10° NNE visible
30 Oct 6.8 23:22:44 50° NNE 23:22:44 50° NNE 23:30:49 10° NNE visible
